Tracking 29892 objects as of 21-Nov-2024
HD Live streaming from Space Station
objects crossing your sky now

STARLINK-30209

Track STARLINK-30209 now!
10-day predictions
STARLINK-30209 is classified as:


NORAD ID: 57307
Int'l Code: 2023-096T
Perigee: 565.3 km
Apogee: 567.2 km
Inclination: 43.0 °
Period: 95.8 minutes
Semi major axis: 6937 km
RCS: Unknown
Launch date: July 10, 2023
Source: United States (US)
Launch site: AIR FORCE EASTERN TEST RANGE (AFETR)
Your satellite tracking list
Your tracking list is empty




NASA's NSSDC Master Catalog

Two Line Element Set (TLE):
1 57307U 23096T   24325.92321737  .00002424  00000-0  19443-3 0  9998
2 57307  43.0021 277.2073 0001395 282.9109  77.1577 15.02536259 75263
Source of the keplerian elements: AFSPC